Home > Weather > Salzwedel > Past weeks

Flag for Germany Weather for the Past 2 Weeks in Salzwedel, Saxony-Anhalt, Germany

Now
50 °F

Scattered clouds.


Feels Like: 44 °F
Forecast: 42 / 47 °F
Wind: 20 mph from Southwest

Location: Fassberg

Current Time: Feb 8, 2016 at 4:09:18 PM

Latest Report: Feb 8, 2016 at 3:20 PM


Visibility: N/A

Pressure: 29.18 "Hg

Humidity: 62%

Dew point: 37 °F

Location of SalzwedelLocation

Historic Weather in Salzwedel — Graph

°F

Salzwedel Temperature Yesterday

Maximum temperature yesterday: 55 °F (at 1:20 PM)
Minimum temperature yesterday: 43 °F (at 2:20 AM)
Average temperature yesterday: 47 °F

High & Low Weather Summary for the Past Weeks

 TemperatureHumidityPressure
High55 °F (Feb 7, 1:20 PM)100% (Jan 24, 6:20 PM)30.33 "Hg (Jan 24, 6:20 PM)
Low34 °F (Jan 31, 3:20 AM)55% (Feb 7, 1:20 PM)29.18 "Hg (Feb 8, 2:20 PM)
Average44 °F83%29.90 "Hg
* Reported Jan 24 2:20 PM — Feb 8 2:20 PM, Salzwedel, Weather by CustomWeather, © 2016

Note: Actual official high and low records may vary slightly from our data, if they occured in-between our weather recording intervals... More about our weather records

Advertising

Salzwedel Weather History for the Previous 24 Hours

 ConditionsComfort  
Time TempWeatherWind HumidityBarometerVisibility
2:20 PM
Mon, Feb 8
48 °FSprinkles. Partly sunny.18 mph71%29.18 "HgN/A
1:20 PM46 °FBroken clouds.18 mph76%29.21 "HgN/A
12:20 PM48 °FScattered clouds.21 mph71%29.21 "HgN/A
11:20 AM48 °FLight rain. Overcast.22 mph71%29.24 "HgN/A
10:20 AM45 °FLight rain. Partly sunny.18 mph87%29.24 "HgN/A
9:20 AM43 °FLight rain. Partly sunny.14 mph87%29.24 "HgN/A
8:57 AM43 °FLight rain. Overcast.14 mph87%29.27 "HgN/A
8:20 AM45 °FRain. Overcast.16 mph76%29.30 "Hg6 mi
7:20 AM46 °FPassing clouds.21 mph66%29.30 "HgN/A
6:20 AM45 °FPassing clouds.18 mph66%29.33 "HgN/A
5:20 AM45 °FLight rain. Passing clouds.17 mph66%29.36 "HgN/A
4:20 AM43 °FPartly cloudy.15 mph71%29.39 "HgN/A
3:20 AM41 °FPassing clouds.12 mph70%29.45 "HgN/A
2:20 AM43 °FPassing clouds.14 mph66%29.47 "HgN/A
1:20 AM41 °FPassing clouds.13 mph70%29.50 "HgN/A
12:20 AM43 °FPassing clouds.13 mph66%29.56 "HgN/A
11:20 PM
Sun, Feb 7
45 °FPassing clouds.12 mph61%29.56 "HgN/A
10:20 PM45 °FPassing clouds.12 mph66%29.59 "HgN/A
9:20 PM46 °FPassing clouds.13 mph62%29.56 "HgN/A
8:20 PM46 °FPassing clouds.10 mph66%29.56 "HgN/A
7:20 PM46 °FPassing clouds.13 mph66%29.56 "HgN/A
6:20 PM48 °FPassing clouds.13 mph66%29.56 "HgN/A
5:20 PM48 °FLight rain. Partly cloudy.13 mph71%29.53 "HgN/A
4:20 PM50 °FMore clouds than sun.12 mph71%29.53 "HgN/A
Weather by CustomWeather, © 2016

See weather overviewHow to use our weather pages